Vancouver, British Columbia

6:52 AM PDT on July 27, 2017 (GMT -0700)
Vancouver International Airport

Weather History for CYVR - February, 2013

Change the Weather History Date:

Wednesday, February 20, 2013

  Actual Average Record
Temperature  
Mean Temperature 36 °F -  
Max Temperature 40 °F 49 °F 51 °F (1999)
Min Temperature 31 °F 36 °F 24 °F (2011)
Degree Days  
Heating Degree Days 30    
Moisture  
Dew Point 32 °F    
Average Humidity 78    
Maximum Humidity 87    
Minimum Humidity 69    
Precipitation  
Precipitation 0.08 in 0.15 in - ()
Sea Level Pressure  
Sea Level Pressure 30.02 in    
Wind  
Wind Speed 8 mph ()    
Max Wind Speed 14 mph    
Max Gust Speed -    
Visibility 10.7 miles    
Events Rain    
Averages and records for this station are not official NWS values.
T = Trace of Precipitation, MM = Missing Value Source: Averaged Metar Reports

Daily Weather History Graph

Daily Weather History Graph

Search for Another Location

Airport or City:

Trip Planner

Search our weather history database for the weather conditions in past years. The results will help you decide how hot, cold, wet, or windy it might be!

Date:

Astronomy

Feb. 20, 2013 Rise Set
Actual Time 7:11 AM PST 5:41 PM PST
Civil Twilight 6:39 AM PST 6:14 PM PST
Nautical Twilight 6:02 AM PST 6:51 PM PST
Astronomical Twilight 5:25 AM PST 7:27 PM PST
Moon 12:52 PM PST (2/20) 3:52 AM PST (2/20)
Length of Visible Light 11h 34m
Length of Day
10h 30m
Waxing Gibbous, 77% of the Moon is Illuminated
Feb 20
Waxing Gibbous
Feb 25
Full
Mar 4
Last Quarter
Mar 11
New
Mar 19
First Quarter

Hourly Weather History & Observations

Time (PST) Temp. Windchill Dew Point Humidity Pressure Visibility Wind Dir Wind Speed Gust Speed Precip Events Conditions
12:00 AM 35.6 °F 29.9 °F 28.4 °F 75% 30.00 in 30.0 mi East 6.9 mph - N/A   Partly Cloudy
12:14 AM 35.6 °F 29.9 °F - N/A% - 30.0 mi ENE 6.9 mph - N/A   Partly Cloudy
1:00 AM 37.4 °F 34.9 °F 33.8 °F 87% 30.01 in 30.0 mi North 3.5 mph - N/A   Partly Cloudy
2:00 AM 35.6 °F - 28.4 °F 75% 30.02 in 30.0 mi Calm Calm - N/A   Scattered Clouds
3:00 AM 33.8 °F 30.8 °F 28.4 °F 81% 30.03 in 20.0 mi East 3.5 mph - N/A   Mostly Cloudy
4:00 AM 36 °F - 29 °F 69% 30.02 in 19 mi East 3.5 mph - -   Overcast
4:00 AM 37.4 °F 33.8 °F 30.2 °F 75% 30.02 in 20.0 mi ENE 4.6 mph - N/A   Overcast
5:00 AM 37.4 °F 32.8 °F 28.4 °F 70% 30.02 in 20.0 mi East 5.8 mph - N/A   Overcast
5:55 AM 37.4 °F 29.8 °F - N/A% - 20.0 mi East 11.5 mph - N/A   Overcast
6:00 AM 37.4 °F 30.3 °F 28.4 °F 70% 30.03 in 20.0 mi East 10.4 mph - N/A   Overcast
6:39 AM 37.4 °F 29.3 °F - N/A% - 20.0 mi East 12.7 mph - N/A   Overcast
7:00 AM 37.4 °F 29.8 °F 28.4 °F 70% 30.02 in 15.0 mi East 11.5 mph - N/A   Overcast
8:00 AM 37.4 °F 29.8 °F 30.2 °F 75% 30.01 in 15.0 mi East 11.5 mph - N/A Rain Light Rain
8:17 AM 37.4 °F 29.8 °F - N/A% - 15.0 mi East 11.5 mph - N/A   Overcast
9:00 AM 37.4 °F 29.3 °F 32.0 °F 81% 30.01 in 12.0 mi East 12.7 mph - N/A Rain Light Rain
9:41 AM 37.4 °F 28.9 °F - N/A% - 12.0 mi East 13.8 mph - N/A   Overcast
10:00 AM 38 °F - 32 °F 70% 30.02 in 12 mi East 11.5 mph - - Rain Light Rain
10:00 AM 37.4 °F 29.3 °F 32.0 °F 81% 30.02 in 12.0 mi East 12.7 mph - N/A   Overcast
11:00 AM 39.2 °F 32.0 °F 33.8 °F 81% 30.02 in 12.0 mi East 11.5 mph - N/A   Overcast
11:34 AM 39.2 °F 31.2 °F - N/A% - 12.0 mi East 13.8 mph - N/A Rain Light Rain
11:54 AM 39.2 °F 32.5 °F - N/A% - 12.0 mi East 10.4 mph - N/A Rain Light Rain
12:00 PM 39.2 °F 31.6 °F 33.8 °F 81% 30.01 in 12.0 mi East 12.7 mph - N/A Rain Light Rain
12:30 PM 39.2 °F 32.5 °F - N/A% - 12.0 mi East 10.4 mph - N/A   Overcast
12:36 PM 39.2 °F 32.0 °F - N/A% - 10.0 mi East 11.5 mph - N/A Rain Light Rain
12:46 PM 39.2 °F 32.0 °F - N/A% - 6.0 mi East 11.5 mph - N/A Rain Light Rain
1:00 PM 39.2 °F 33.0 °F 33.8 °F 81% 30.01 in 6.0 mi East 9.2 mph - N/A Rain Light Rain
1:14 PM 39.2 °F 32.5 °F - N/A% - 7.0 mi East 10.4 mph - N/A Rain Light Rain
1:20 PM 39.2 °F 32.5 °F - N/A% - 6.0 mi East 10.4 mph - N/A Rain Light Rain
2:00 PM 41.0 °F 34.3 °F 35.6 °F 81% 30.00 in 6.0 mi East 11.5 mph - N/A Rain Light Rain
3:00 PM 41.0 °F 35.2 °F 35.6 °F 81% 30.00 in 6.0 mi East 9.2 mph - N/A Rain Light Rain
3:12 PM 41.0 °F 35.2 °F - N/A% - 7.0 mi East 9.2 mph - N/A Rain Light Rain
3:19 PM 41.0 °F 35.2 °F - N/A% - 7.0 mi East 9.2 mph - N/A Rain Light Rain
3:28 PM 41.0 °F 35.2 °F - N/A% - 7.0 mi ENE 9.2 mph - N/A Rain Light Rain
3:57 PM 41.0 °F 35.8 °F - N/A% - 7.0 mi ENE 8.1 mph - N/A   Light Drizzle
4:00 PM 40 °F - 36 °F 79% 30.01 in 7 mi ENE 8.1 mph - - Rain Light Drizzle
4:00 PM 41.0 °F 35.2 °F 35.6 °F 81% 30.01 in 7.0 mi ENE 9.2 mph - N/A   Light Drizzle
4:48 PM 39.2 °F 33.0 °F - N/A% - 7.0 mi East 9.2 mph - N/A   Light Drizzle
5:00 PM 39.2 °F 32.5 °F 35.6 °F 87% 30.01 in 7.0 mi East 10.4 mph - N/A   Light Drizzle
5:14 PM 39.2 °F 33.0 °F - N/A% - 7.0 mi East 9.2 mph - N/A   Light Drizzle
5:24 PM 39.2 °F 33.0 °F - N/A% - 8.0 mi East 9.2 mph - N/A   Light Drizzle
5:39 PM 39.2 °F 32.5 °F - N/A% - 8.0 mi East 10.4 mph - N/A   Light Drizzle
6:00 PM 39.2 °F 34.2 °F 33.8 °F 81% 30.02 in 8.0 mi East 6.9 mph - N/A   Overcast
6:08 PM 39.2 °F 33.6 °F - N/A% - 8.0 mi East 8.1 mph - N/A   Light Drizzle
7:00 PM 39.2 °F 34.2 °F 33.8 °F 81% 30.03 in 8.0 mi East 6.9 mph - N/A   Light Drizzle
7:51 PM 39.2 °F 35.0 °F - N/A% - 8.0 mi East 5.8 mph - N/A   Overcast
8:00 PM 39.2 °F 33.6 °F 33.8 °F 81% 30.03 in 10.0 mi East 8.1 mph - N/A   Overcast
8:36 PM 39.2 °F 34.2 °F - N/A% - 8.0 mi East 6.9 mph - N/A Rain Light Rain
9:00 PM 39.2 °F 33.0 °F 33.8 °F 81% 30.03 in 8.0 mi East 9.2 mph - N/A Rain Light Rain
9:46 PM 39.2 °F 34.2 °F - N/A% - 10.0 mi East 6.9 mph - N/A   Overcast
10:00 PM 39 °F - 34 °F 77% 30.04 in 10 mi East 6.9 mph - - Rain Light Rain
10:00 PM 39.2 °F 34.2 °F 33.8 °F 81% 30.04 in 10.0 mi East 6.9 mph - N/A   Overcast
10:47 PM 39.2 °F 34.2 °F - N/A% - 10.0 mi East 6.9 mph - N/A Rain Light Rain
11:00 PM 39.2 °F 34.2 °F 33.8 °F 81% 30.02 in 10.0 mi East 6.9 mph - N/A Rain Light Rain
11:38 PM 39.2 °F 34.2 °F - N/A% - 10.0 mi East 6.9 mph - N/A   Overcast